Regional Weather Roundup
Issued by NWS

Home | Current Version | Previous Version | Graphics & Text | Print | Product List | Glossary On
Versions: 1 2 3 4 5 6 7 8 9 10 11 12 13 14 15 16 17 18 19 20 21 22 23 24 25 26 27
000
ASUS45 KBOU 190010
RWRCO

WEATHER ROUNDUP FOR COLORADO
NATIONAL WEATHER SERVICE DENVER/BOULDER CO
500 PM MST THU JAN 18 2018

NOTE: "FAIR" INDICATES FEW OR NO CLOUDS BELOW 12000 FEET WITH NO
SIGNIFICANT WEATHER AND/OR OBSTRUCTIONS TO VISIBILITY.

COZ001>005-013-030-031-190100-
...NORTHWEST COLORADO...

CITY           SKY/WX    TMP DP  RH WIND       PRES   REMARKS
CRAIG          FAIR      40  17  39 E10       30.15S
HAYDEN         FAIR     N/A N/A N/A E8        30.17F
MEEKER         FAIR      43  22  43 NW3       30.14F
RABBIT EARS PA FAIR      30  16  55 SW8       30.24S WCI  23
STEAMBOAT SPGS FAIR      29  18  62 CALM      30.18S
WALDEN         FAIR      34  14  44 S9        30.17F WCI  26
$$

COZ006>008-011-190100-
...WEST CENTRAL VALLEYS...

CITY           SKY/WX    TMP DP  RH WIND       PRES   REMARKS
GRAND JUNCTION FAIR      43  17  35 W3        30.19S
MONTROSE       FAIR      42  16  34 NW6       30.20S
EAGLE          FAIR      36  13  38 W6        30.23F
RIFLE          FAIR      38  21  50 CALM      30.19S
DELTA          FAIR      47  15  27 CALM      30.19S
NUCLA          FAIR      45  16  31 CALM      30.22F
$$

COZ017>023-064>068-190100-
...SOUTHWEST COLORADO...

CITY           SKY/WX    TMP DP  RH WIND       PRES   REMARKS
DURANGO        FAIR      43  20  39 S5        30.20S
CORTEZ         FAIR      43  20  39 SW6       30.20S
PAGOSA SPRINGS FAIR      44  14  30 W6        30.23R
TELLURIDE      FAIR      42  12  29 CALM      30.26F
WOLF CREEK PAS FAIR      32   7  34 SW7       30.37S WCI  26
$$

COZ009-010-012-014-032>034-037-058>063-190100-
...CENTRAL COLORADO...

CITY           SKY/WX    TMP DP  RH WIND       PRES   REMARKS
ASPEN          FAIR      35  16  45 CALM      30.19S
BUENA VISTA    FAIR      49   7  17 NW8G17    30.14R
COPPER MTN     NOT AVBL
BERTHOUD PASS  FAIR      25  12  58 NW15G24   30.30S WCI  12
COTTONWOOD PAS   N/A     48   7  18 W12G22    30.21S
GUNNISON       FAIR      32  12  43 CALM      30.24F
KREMMLING      FAIR      32  16  51 CALM      30.24F
LEADVILLE      FAIR      35   7  31 N6        30.22F WCI  30
MONARCH PASS   FAIR      27   5  39 SW21      30.40S WCI  13
SALIDA         FAIR      50   3  14 SW16      30.20S
SUNLIGHT       FAIR      30  10  43 SW9       30.31S WCI  22
WILKERSON PASS FAIR      37   5  25 W8        30.28S
$$

COZ069>075-190100-
...SAN LUIS VALLEY/SANGRE DE CRISTO MOUNTAINS...

CITY           SKY/WX    TMP DP  RH WIND       PRES   REMARKS
ALAMOSA        FAIR      43   2  18 CALM      30.18R
DEL NORTE      FAIR      41   2  20 E5        30.21R
LA VETA PASS   FAIR      32   5  32 MISG        N/A
SAGUACHE       FAIR      39   5  24 SE5       30.21S
$$

COZ035-036-038>040-190100-
...NORTHERN COLORADO FRONT RANGE...

CITY           SKY/WX    TMP DP  RH WIND       PRES   REMARKS
DENVER INTL AP MOCLDY    57  11  16 E5        29.98S
DMNS CITY PARK   N/A      0   0 100 CALM        N/A
AURORA         MOCLDY    53  11  18 E8        29.99S
FRONT RANGE AP MOCLDY    54  16  22 VRB5      29.99S
ERIE MUNI ARPT FAIR      46  21  38 CALM      30.02S
BOULDER MUN AP FAIR      54  23  30 CALM      29.97S
CENTENNIAL     MOCLDY    59   5  11 CALM      30.00R
BROOMFIELD     MOCLDY    63  12  14 W6        29.99S
FORT COLLINS   FAIR      50  22  33 CALM      29.97S
LONGMONT       FAIR      50  19  28 CALM      29.98S
$$

COZ041-046-047-076>085-087-088-190100-
...PIKES PEAK/PALMER DIVIDE AND SOUTHERN FOOTHILLS...

CITY           SKY/WX    TMP DP  RH WIND       PRES   REMARKS
COLO. SPRINGS  MOCLDY    50   9  19 SE3       30.05S
A. F. ACADEMY  FAIR      49   3  15 S5        30.05R
SCHRIEVER AFB  FAIR      48   5  17 CALM      30.05S
CHEYENNE MTN   FAIR      44  10  25 CALM      30.02R
ELLICOTT         N/A    N/A N/A N/A CALM      30.04R
FALCON         FAIR      45   0  15 CALM      30.08S
FORT CARSON    FAIR      50   8  18 E5        30.03R
LIMON          FAIR      53   8  16 SW6       30.01R
MONUMENT HILL  FAIR      37  10  32 S8        30.08R
CANON CITY     CLEAR     57  10  15 CALM      30.00S
WALSENBURG     FAIR      55  10  16 W5        30.04R
TRINIDAD       FAIR      51   9  18 S7        30.03F
$$

COZ042>045-048>051-090-091-190100-
...NORTHEAST COLORADO...

CITY           SKY/WX    TMP DP  RH WIND       PRES   REMARKS
GREELEY ARPT   FAIR      48  21  34 CALM      29.96F
AKRON          FAIR      49  25  39 SW6       29.96S
BURLINGTON     FAIR      44  14  29 S9        29.98R
WRAY           FAIR      52  21  30 CALM      29.94F
YUMA           FAIR      52  14  22 SW3       29.94F
STERLING       FAIR      45  21  39 S7        29.92F
HOLYOKE        FAIR      46  23  39 SW3       29.93F
FORT MORGAN    FAIR      50  14  24 SW5       29.95F
$$

COZ086-089-092>099-190100-
...SOUTHEAST COLORADO...

CITY           SKY/WX    TMP DP  RH WIND       PRES   REMARKS
PUEBLO         FAIR      54  13  19 E7        29.98S
LA JUNTA       FAIR      55  10  16 CALM      29.98S
LAMAR          FAIR      50  12  21 E3        29.97S
SPRINGFIELD      N/A     47   2  15 SW6       30.00S
$$




USA.gov is the U.S. government's official web portal to all federal, state and local government web resources and services.